Weather History for Nassau Airport, Bahamas

Change the Weather History Date:

Thursday, July 4, 2013

  Actual Average Record
Temperature  
Mean Temperature 84 °F -  
Max Temperature 88 °F 89 °F - ()
Min Temperature 80 °F 75 °F - ()
Cooling Degree Days 19    
Growing Degree Days 34 (Base 50)    
Moisture  
Dew Point 74 °F    
Average Humidity 71    
Maximum Humidity 84    
Minimum Humidity 57    
Precipitation  
Precipitation 0.00 in 0.22 in - ()
Sea Level Pressure  
Sea Level Pressure 30.13 in    
Wind  
Wind Speed 8 mph ()    
Max Wind Speed 16 mph    
Max Gust Speed -    
Visibility 6.9 miles    
Events      
T = Trace of Precipitation, MM = Missing Value Source: Averaged Metar Reports

Daily Weather History Graph

Daily Weather History Graph

Search for Another Location

Airport:

Trip Planner

Search our weather history database for the weather conditions in past years. The results will help you decide how hot, cold, wet, or windy it might be!

Date:

Astronomy

Jul. 04, 2013 Rise Set
Actual Time 6:24 AM EDT 8:03 PM EDT
Civil Twilight 5:59 AM EDT 8:29 PM EDT
Nautical Twilight 5:28 AM EDT 9:00 PM EDT
Astronomical Twilight 4:56 AM EDT 9:32 PM EDT
Moon 3:32 AM EDT (7/4) 5:12 PM EDT (7/4)
Length of Visible Light 14h 30m
Length of Day
13h 38m
Waning Crescent, 11% of the Moon is Illuminated
Jul 4
Waning Crescent
Jul 8
New
Jul 15
First Quarter
Jul 22
Full
Jul 29
Last Quarter

Hourly Weather History & Observations

Time (EDT) Temp. Heat Index Dew Point Humidity Pressure Visibility Wind Dir Wind Speed Gust Speed Precip Events Conditions
12:00 AM 80.6 °F 85.4 °F 73.4 °F 79% 30.14 in 6.2 mi ESE 5.8 mph - N/A   Mostly Cloudy
2:00 AM 81 °F - 75 °F 77% 30.12 in 8 mi ESE 3.5 mph - -   Partly Cloudy
2:00 AM 80.6 °F 86.2 °F 75.2 °F 84% 30.12 in 6.2 mi ESE 3.5 mph - N/A   Partly Cloudy
4:00 AM 80.6 °F 85.4 °F 73.4 °F 79% 30.09 in 6.2 mi ESE 5.8 mph - N/A   Partly Cloudy
5:00 AM 81 °F - 74 °F 72% 30.09 in 8 mi East 6.9 mph - -   Scattered Clouds
5:00 AM 80.6 °F 85.4 °F 73.4 °F 79% 30.09 in 6.2 mi East 6.9 mph - N/A   Partly Cloudy
6:00 AM 80.6 °F 85.4 °F 73.4 °F 79% 30.10 in 6.2 mi ESE 8.1 mph - N/A   Partly Cloudy
7:00 AM 80.6 °F 85.4 °F 73.4 °F 79% 30.11 in 6.2 mi ESE 6.9 mph - N/A   Scattered Clouds
8:00 AM 82 °F - 74 °F 70% 30.13 in 9 mi SE 8.1 mph - -   Partly Cloudy
8:00 AM 82.4 °F 88.2 °F 73.4 °F 74% 30.13 in 6.2 mi SE 8.1 mph - N/A   Scattered Clouds
9:00 AM 84.2 °F 92.3 °F 75.2 °F 74% 30.14 in 6.2 mi ESE 11.5 mph - N/A   Scattered Clouds
10:00 AM 84.2 °F 90.9 °F 73.4 °F 70% 30.15 in 6.2 mi SE 11.5 mph - N/A   Mostly Cloudy
11:00 AM 86 °F - 73 °F 57% 30.16 in 9 mi ESE 12.7 mph - -   Mostly Cloudy
11:00 AM 86.0 °F 93.4 °F 73.4 °F 66% 30.16 in 6.2 mi ESE 12.7 mph - N/A   Scattered Clouds
12:00 PM 86.0 °F 93.4 °F 73.4 °F 66% 30.16 in 6.2 mi ESE 11.5 mph - N/A   Scattered Clouds
1:00 PM 86.0 °F 93.4 °F 73.4 °F 66% 30.16 in 6.2 mi SE 11.5 mph - N/A   Scattered Clouds
2:00 PM 87 °F - 74 °F 59% 30.15 in 9 mi ESE 11.5 mph - -   Mostly Cloudy
2:00 PM 87.8 °F 97.6 °F 75.2 °F 66% 30.14 in 6.2 mi ESE 11.5 mph - N/A   Scattered Clouds
3:00 PM 86.0 °F 93.4 °F 73.4 °F 66% 30.14 in 6.2 mi ESE 13.8 mph - N/A   Scattered Clouds
4:00 PM 86.0 °F 93.4 °F 73.4 °F 66% 30.11 in 6.2 mi SE 11.5 mph - N/A   Scattered Clouds
5:00 PM 86 °F - 74 °F 59% 30.11 in 9 mi SE 16.1 mph - -   Partly Cloudy
5:00 PM 86.0 °F 93.4 °F 73.4 °F 66% 30.10 in 6.2 mi SE 16.1 mph - N/A   Scattered Clouds
6:00 PM 86.0 °F 95.1 °F 75.2 °F 70% 30.11 in 6.2 mi SE 11.5 mph - N/A   Scattered Clouds
7:00 PM 84.2 °F 90.9 °F 73.4 °F 70% 30.10 in 6.2 mi ESE 13.8 mph - N/A   Scattered Clouds
8:00 PM 84 °F - 73 °F 62% 30.13 in 9 mi SE 16.1 mph - -   Partly Cloudy
8:00 PM 84.2 °F 90.9 °F 73.4 °F 70% 30.13 in 6.2 mi SE 16.1 mph - N/A   Scattered Clouds
9:00 PM 82.4 °F 89.5 °F 75.2 °F 79% 30.14 in 6.2 mi SE 9.2 mph - N/A   Scattered Clouds
10:00 PM 82.4 °F 88.2 °F 73.4 °F 74% 30.16 in 6.2 mi SE 13.8 mph - N/A   Scattered Clouds
11:00 PM 83 °F - 74 °F 69% 30.16 in 9 mi SE 12.7 mph - -   Scattered Clouds